Saranac Lake, NY

6:25 PM EDT on September 23, 2017 (GMT -0400)
Adirondack Regional

Weather History for KSLK - October, 2012

Change the Weather History Date:

Thursday, October 11, 2012

  Actual Average Record
Temperature  
Mean Temperature 41 °F 44 °F  
Max Temperature 46 °F 55 °F 81 °F (1949)
Min Temperature 35 °F 32 °F 15 °F (1993)
Degree Days  
Heating Degree Days 24 21  
Month to date heating degree days 196 216  
Since 1 July heating degree days 710 801  
Cooling Degree Days 0 0  
Month to date cooling degree days 0 0  
Year to date cooling degree days 155 114  
Moisture  
Dew Point 32 °F    
Average Humidity 69    
Maximum Humidity 89    
Minimum Humidity 49    
Precipitation  
Precipitation 0.02 in 0.12 in 0.59 in (1971)
Month to date precipitation 1.77 1.39  
Year to date precipitation 27.39 29.22  
Sea Level Pressure  
Sea Level Pressure 29.96 in    
Wind  
Wind Speed 10 mph (WSW)    
Max Wind Speed 20 mph    
Max Gust Speed 30 mph    
Visibility 10 miles    
Events Rain    
T = Trace of Precipitation, MM = Missing Value Source: NWS Daily Summary

Daily Weather History Graph

Daily Weather History Graph

Search for Another Location

Airport or City:

Trip Planner

Search our weather history database for the weather conditions in past years. The results will help you decide how hot, cold, wet, or windy it might be!

Date:

Astronomy

Oct. 11, 2012 Rise Set
Actual Time 7:07 AM EDT 6:18 PM EDT
Civil Twilight 6:38 AM EDT 6:47 PM EDT
Nautical Twilight 6:04 AM EDT 7:21 PM EDT
Astronomical Twilight 5:30 AM EDT 7:55 PM EDT
Moon 2:34 AM EDT (10/11) 4:01 PM EDT (10/11)
Length of Visible Light 12h 09m
Length of Day
11h 11m
Waning Crescent, 18% of the Moon is Illuminated
Oct 11
Waning Crescent
Oct 15
New
Oct 21
First Quarter
Oct 29
Full
Nov 6
Last Quarter

Hourly Weather History & Observations

Time (EDT) Temp. Windchill Dew Point Humidity Pressure Visibility Wind Dir Wind Speed Gust Speed Precip Events Conditions
12:01 AM 39.2 °F 34.2 °F 35.6 °F 87% 29.80 in 10.0 mi WSW 6.9 mph - N/A   Scattered Clouds
12:11 AM 39.2 °F 34.2 °F 35.6 °F 87% 29.80 in 10.0 mi WSW 6.9 mph - N/A   Mostly Cloudy
12:51 AM 39.0 °F 32.8 °F 35.1 °F 86% 29.82 in 10.0 mi WSW 9.2 mph - N/A   Overcast
1:51 AM 39.0 °F 32.8 °F 34.0 °F 82% 29.83 in 10.0 mi WSW 9.2 mph - N/A   Overcast
2:51 AM 37.9 °F 32.7 °F 35.1 °F 89% 29.83 in 9.0 mi WSW 6.9 mph - 0.01 in Rain Light Rain
3:44 AM 37.4 °F 31.4 °F 33.8 °F 87% 29.84 in 9.0 mi West 8.1 mph - 0.01 in   Overcast
3:51 AM 37.0 °F 31.6 °F 34.0 °F 89% 29.86 in 8.0 mi Variable 6.9 mph 17.3 mph 0.01 in   Overcast
4:12 AM 37.4 °F 31.4 °F 33.8 °F 87% 29.85 in 10.0 mi WSW 8.1 mph - 0.00 in   Overcast
4:51 AM 37.0 °F 31.6 °F 33.1 °F 86% 29.91 in 10.0 mi WSW 6.9 mph - 0.00 in   Overcast
5:51 AM 36.0 °F 30.3 °F 32.0 °F 86% 29.96 in 10.0 mi West 6.9 mph - N/A   Overcast
6:51 AM 36.0 °F 32.1 °F 32.0 °F 86% 29.98 in 10.0 mi Variable 4.6 mph - N/A   Overcast
7:51 AM 36.0 °F 30.3 °F 32.0 °F 86% 30.00 in 10.0 mi Variable 6.9 mph - N/A   Overcast
8:51 AM 37.9 °F 32.7 °F 32.0 °F 79% 30.03 in 10.0 mi Variable 6.9 mph - N/A   Mostly Cloudy
9:17 AM 39.2 °F 35.0 °F 32.0 °F 75% 30.00 in 10.0 mi Variable 5.8 mph - N/A   Mostly Cloudy
9:51 AM 39.0 °F 32.8 °F 30.9 °F 73% 30.05 in 10.0 mi West 9.2 mph 16.1 mph N/A   Overcast
10:26 AM 39.2 °F 33.0 °F 30.2 °F 70% 30.01 in 10.0 mi West 9.2 mph - N/A   Overcast
10:51 AM 41.0 °F 33.5 °F 30.9 °F 67% 30.05 in 10.0 mi WSW 13.8 mph 18.4 mph N/A   Overcast
10:58 AM 41.0 °F 35.2 °F 30.2 °F 65% 30.02 in 10.0 mi WSW 9.2 mph 21.9 mph N/A   Overcast
11:51 AM 42.1 °F 34.2 °F 27.0 °F 55% 30.05 in 10.0 mi WSW 16.1 mph 25.3 mph N/A   Mostly Cloudy
1:51 PM 44.1 °F 38.1 °F 26.1 °F 49% 30.05 in 10.0 mi WSW 11.5 mph 28.8 mph N/A   Mostly Cloudy
2:51 PM 44.1 °F 38.1 °F 26.1 °F 49% 30.06 in 10.0 mi West 11.5 mph 20.7 mph N/A   Overcast
4:51 PM 43.0 °F 38.2 °F 28.0 °F 56% 30.05 in 10.0 mi WSW 8.1 mph - N/A   Overcast
6:26 PM 39.2 °F 33.6 °F 33.8 °F 81% 30.01 in 10.0 mi SW 8.1 mph - 0.00 in   Overcast
6:51 PM 39.0 °F 32.3 °F 33.1 °F 79% 30.05 in 10.0 mi SW 10.4 mph - 0.00 in   Overcast
7:51 PM 39.0 °F 32.8 °F 32.0 °F 76% 30.03 in 10.0 mi SSW 9.2 mph - N/A   Overcast
10:51 PM 42.1 °F 35.2 °F 30.9 °F 65% 29.97 in 10.0 mi SW 12.7 mph - N/A   Overcast